SL-12 R/B(2), 32278

Orbit data source: Space-Track

SL-12 R/B(2), 32278 is space debris in MEO originally from a launch on Fri, 26 Oct 2007 UTC launched from the Tyuratam Missile And Space Complex (TTMTR). Debris objects in space refer to the collection of defunct objects orbiting the Earth. Examples of debris include non-operational satellites, rocket bodies, and fragments generated from explosions, collisions, or faulty payload assembly.

Loading next visibility...
Identifier
32278, 2007-052D
Orbit
MEO
Country
Flag of CISCIS
Related business
Manufacturer
RKKE
Mission
Spacecraft
Bus & Motor
BLOK DM2, 11D58M
Mass
2,440 kg wet, 2,440 kg dry
Launch date (UTC)
2007-10-26 (19 years ago)
Launch vehicle
Unknown
Launch site
Tyuratam Missile And Space Complex (TTMTR)
Object type
Payload
Rocket body
Debris
Shape & HBR
Cyl, 3.5 m
Radar Cross Section
26.008 m², Large (>1 m²)

Expand to show TLE details & history
Last TLE update: 3 days ago

TLE from 3 days ago
0 SL-12 R/B(2)
1 32278U 07052D   26170.42916193 -.00000058  00000-0  00000-0 0  9991
2 32278  65.5662 315.2170 0018414 194.7344 175.6412  2.13393792145198
Epoch: 2026-06-19T10:17Z
TLE epoch observation values (Epoch: 2026-06-19T10:17:59.590Z)
Latitude
9.47626°
Longitude
-102.6128°
Altitude
19,153.273 km
Speed
3.948 km/s
True Right ascension
21h 18m 10s
True Declination
9° 27' 39"
Sunlit
Object was in daylight at epoch
Visualization orbit readout
Latitude
Unknown
Longitude
Unknown
Altitude
Unknown
Speed
Unknown
Apparent Right ascension
Unknown
Apparent Declination
Unknown
Sunlit
N/A
Visualization observer readout
Local Sidereal Time
02:14:09
Azimuth
Unknown
Elevation
Unknown
Doppler factor
Unknown
Orbital elements
Apogee altitude
19,153.151 km
Perigee altitude
19,059.297 km
Semi-major axis
25,484.361 km
Eccentricity
0.00184
Inclination
65.5662°
RAAN
315.217°
Arg. of periapsis
194.7344°
True anomaly
175.6572°
Mean anomaly
175.6412°
Eccentric anomaly
175.6492°
Mean motion
0.5335 °/min
Orbital period
674.79 mins
BSTAR
0
Loading maneuver chart data...
Computing Atmospheric mass density...
Loading historical data...
Loading historical data...
Loading historical data...
Loading historical data...
Loading historical data...
Loading historical data...
Loading historical data...

Documentation

Showing up to 5 results
|